Wind_Speed
46 49 52 56 60 63 67 69 69 73 76 79 82 87 92 95 96 97 101 96 86 76 71 74 76 72 66 66 65 64 62 60 61 54 49 47 58 63 69 65 67 74 80
47 52 56 60 63 66 67 69 72 75 79 82 87 91 92 94 97 100 94 81 73 70 73 77 63 57 56 52 51 50 51 53 54 50 49 56 45 40 45 62 64 67 71
53 57 58 61 65 67 68 72 75 77 81 86 89 90 93 95 98 89 76 66 66 73 70 54 47 52 46 50 52 50 47 47 46 41 38 45 39 39 44 38 43 62 62
58 58 58 62 68 68 72 75 76 79 83 86 89 92 94 97 89 74 62 63 67 64 50 49 51 52 45 37 37 38 39 40 38 33 32 36 34 39 44 43 38 40 43
56 58 61 67 69 71 73 74 78 81 85 88 91 93 96 87 69 59 60 63 60 49 44 45 46 43 40 35 40 42 43 39 34 36 32 35 35 43 44 41 39 38 42
58 62 66 69 71 72 72 76 80 83 86 90 93 95 82 64 57 56 58 55 48 40 37 39 39 38 38 38 39 41 40 37 40 37 33 37 34 29 38 41 37 37 37
61 64 67 69 71 72 75 79 83 84 88 92 93 79 62 55 53 53 53 51 45 41 41 42 42 43 44 45 43 42 40 40 43 41 34 36 42 30 28 36 37 38 35
62 65 68 69 71 74 78 81 83 86 89 89 74 61 54 52 51 51 49 48 44 44 44 45 47 46 48 49 47 46 45 40 39 37 37 32 37 33 28 34 33 36 43
62 66 67 69 73 77 79 81 84 86 84 75 59 53 50 50 50 50 49 47 46 45 46 49 50 52 58 58 56 52 46 42 41 39 37 37 34 40 41 36 34 36 39
65 66 69 72 75 77 79 82 84 83 75 60 52 49 49 49 50 50 51 48 50 49 48 49 52 59 55 50 45 40 41 39 40 41 39 40 33 39 44 40 36 36 36
64 67 71 72 74 77 81 82 81 77 61 53 49 48 49 50 50 51 52 51 50 50 48 49 52 57 52 47 41 36 34 34 35 38 34 35 32 36 41 35 34 32 31
66 69 70 73 76 79 80 78 75 62 52 48 46 47 49 50 51 50 50 51 51 52 47 48 53 51 46 45 38 30 25 22 21 23 25 25 23 26 27 32 28 26 26
68 70 72 75 76 78 76 70 59 52 49 46 46 47 46 48 49 49 49 50 50 51 48 48 52 47 43 32 24 18 16 18 18 17 18 18 18 18 20 20 22 17 17
69 71 73 75 76 74 68 58 53 49 47 47 47 47 47 48 48 49 49 49 48 48 46 47 46 41 38 29 22 13 9 9 10 12 15 14 14 13 15 15 10 5 7
69 70 72 74 72 67 59 52 48 48 48 47 49 50 52 53 54 54 53 50 47 44 41 41 40 36 33 25 17 10 8 8 9 9 8 7 8 10 10 8 6 4 4
68 70 70 68 65 59 51 48 46 48 49 50 53 56 59 61 59 54 50 46 43 40 38 37 36 31 29 21 14 12 10 10 10 5 5 6 5 6 5 4 5 6 1
68 70 67 62 55 50 46 44 45 48 51 54 57 59 55 50 49 46 42 40 36 34 34 33 33 28 26 17 13 12 10 9 6 6 8 7 7 8 9 8 6 8 10
66 64 57 52 47 45 45 45 48 50 52 54 54 48 47 46 46 43 39 36 31 31 29 29 30 25 22 13 14 13 13 8 7 10 11 10 10 11 12 12 12 12 11
57 52 47 44 44 44 46 49 52 53 54 50 45 44 43 41 41 41 37 33 28 27 26 25 28 21 19 11 14 11 8 8 11 15 12 14 12 13 12 11 9 6 4
47 46 45 44 46 48 51 53 54 54 50 45 44 42 41 38 37 37 36 33 27 26 24 23 26 18 16 11 12 11 10 11 16 17 15 14 13 11 12 10 9 9 8
44 46 46 48 51 53 56 55 54 50 46 43 40 40 39 37 34 33 33 31 27 25 24 21 25 17 15 13 14 12 13 12 20 19 18 17 14 13 13 13 11 9 8
46 49 51 53 56 58 58 56 50 47 44 42 41 40 39 37 35 33 31 30 28 24 23 21 23 16 15 14 14 17 15 13 22 21 20 20 18 16 16 15 13 11 10
50 53 56 57 56 54 53 53 51 48 46 44 43 42 41 38 35 32 30 27 28 25 24 21 21 18 16 17 17 21 18 17 23 24 24 22 20 19 17 16 15 12 11
53 50 49 51 55 56 57 57 55 53 51 48 47 46 43 40 37 33 30 27 26 26 25 23 21 19 17 19 20 23 22 19 21 24 24 24 23 21 20 19 16 13 13
48 50 53 57 59 61 61 59 58 55 53 50 49 47 45 42 39 36 32 29 27 25 26 25 22 21 19 19 20 22 22 20 22 24 24 24 22 21 19 18 16 15 13
55 59 64 66 67 66 64 61 58 57 55 54 52 50 48 45 43 39 36 32 29 27 26 27 26 22 22 20 20 21 19 20 22 24 25 24 23 21 20 18 17 16 16
Wind_Direction
281 286 290 288 289 290 293 295 298 300 300 301 302 305 305 303 301 303 306 312 315 313 309 304 299 296 291 287 283 280 280 280 279 271 274 266 256 257 254 252 244 240 233
286 289 288 288 290 293 293 298 299 300 300 303 305 304 302 303 305 309 314 317 314 311 308 303 302 299 295 291 289 287 286 284 282 276 275 265 265 264 255 253 253 249 241
286 287 290 292 291 292 297 299 300 302 303 304 304 303 304 307 311 317 317 314 313 311 309 307 304 307 292 287 289 290 288 286 286 285 282 276 273 263 252 247 245 244 245
288 289 290 288 290 296 299 300 301 302 304 304 304 305 309 313 317 318 315 315 316 315 308 305 307 310 306 293 295 292 290 292 289 291 280 274 257 249 249 250 237 238 241
287 289 288 290 295 297 297 299 301 303 303 304 304 308 312 317 318 315 316 319 322 322 318 315 313 311 302 297 297 295 285 291 293 290 274 269 258 248 246 238 235 235 237
289 287 289 292 294 295 298 300 302 303 304 304 308 311 317 316 315 317 319 324 323 325 325 321 321 318 312 307 298 297 294 282 292 286 277 262 263 257 249 233 237 239 235
285 287 289 291 294 297 299 301 302 304 303 306 310 317 316 314 314 317 322 326 322 320 320 318 312 306 304 301 299 298 296 291 287 281 278 257 257 249 237 238 235 241 243
287 288 290 292 295 298 299 300 302 302 304 310 315 314 313 311 313 317 323 324 321 317 316 312 311 306 302 297 294 291 289 286 285 275 267 268 260 244 244 236 247 254 248
285 287 291 294 295 296 299 300 299 303 309 314 313 311 310 311 313 316 321 323 320 317 315 312 312 310 308 301 292 286 284 278 276 271 267 264 261 239 245 243 255 263 259
287 290 291 292 294 297 297 296 300 307 312 312 309 308 309 310 312 314 316 321 320 315 315 315 313 314 311 310 307 292 283 272 268 262 265 256 264 243 241 248 260 268 265
286 288 289 292 294 293 294 299 305 310 311 308 306 307 308 309 311 312 313 315 318 320 312 315 315 316 314 312 304 293 281 273 264 262 256 254 259 249 239 257 269 270 263
286 287 290 290 290 292 298 305 307 308 305 303 305 307 308 309 310 311 312 315 317 321 317 317 318 319 319 314 305 297 280 270 260 253 252 253 252 241 245 260 265 268 264
285 286 287 287 291 298 303 305 304 302 303 303 304 305 306 307 308 309 312 313 316 320 317 318 322 323 324 318 311 303 287 275 264 247 237 236 231 240 247 257 270 262 252
283 285 287 292 298 302 304 303 301 302 302 303 303 305 305 305 305 306 308 308 312 317 314 320 324 325 327 318 318 306 285 259 243 236 226 230 232 248 261 266 243 254 239
285 289 295 299 301 303 301 300 301 302 303 303 305 305 304 305 306 306 306 305 306 311 313 321 326 326 326 319 311 295 280 252 227 250 248 226 247 252 246 225 193 133 123
292 294 297 300 301 300 298 300 301 302 304 307 308 307 308 310 312 313 309 301 301 307 311 317 324 325 324 312 294 286 272 240 280 233 207 197 199 204 191 176 190 204 209
294 296 298 297 296 296 297 298 298 303 307 308 309 310 312 315 316 316 315 308 300 304 308 316 322 322 322 301 277 277 250 284 249 167 154 151 160 148 126 125 146 178 203
295 295 293 293 294 295 295 296 297 299 301 304 307 310 313 315 315 317 317 313 301 304 306 314 319 318 320 286 262 264 249 264 203 176 167 165 162 150 138 135 133 136 139
291 288 288 290 291 293 296 298 300 302 305 305 306 309 312 313 314 316 317 314 300 299 301 309 317 312 318 282 263 251 236 217 190 184 191 186 172 159 154 148 144 145 154
285 285 285 288 291 296 298 299 301 303 303 304 306 307 309 311 311 311 313 314 303 298 296 302 313 298 303 276 252 245 232 220 188 195 203 198 188 181 176 184 198 228 240
283 285 287 291 293 295 296 298 299 300 300 301 302 304 306 308 309 311 313 311 303 293 290 296 308 286 284 269 249 245 228 230 199 200 208 207 208 203 199 203 216 235 250
286 288 289 291 293 294 295 297 297 297 297 297 298 298 300 302 304 305 308 308 304 287 283 287 301 280 270 266 240 230 230 225 210 205 216 221 218 219 220 226 244 255 258
289 290 291 293 294 295 296 296 296 297 295 294 294 294 294 296 298 298 299 303 302 286 278 277 291 275 261 257 246 228 231 227 218 211 218 224 225 229 236 244 254 258 262
291 293 295 298 299 299 298 297 297 296 294 293 291 289 289 290 291 291 290 292 295 290 273 269 275 272 258 249 247 236 238 231 219 215 222 228 233 236 238 244 251 257 260
292 294 298 300 303 303 300 297 295 293 291 289 287 286 286 285 284 284 284 283 284 289 273 262 260 270 251 244 240 233 228 227 214 214 220 228 231 233 242 248 254 257 265
291 295 298 300 300 299 298 296 293 292 291 289 288 286 284 282 280 278 277 277 277 275 274 259 251 257 247 237 229 217 221 220 211 210 217 225 231 240 250 251 253 258 259
Height
5732 5728 5724 5719 5715 5710 5706 5700 5695 5689 5682 5674 5666 5656 5646 5635 5621 5609 5594 5581 5570 5562 5554 5543 5535 5527 5520 5514 5508 5505 5502 5500 5497 5509 5509 5510 5511 5511 5516 5522 5532 5541 5552
5720 5715 5711 5708 5703 5697 5691 5687 5680 5673 5666 5657 5648 5638 5626 5613 5600 5586 5575 5562 5551 5544 5535 5524 5514 5507 5502 5496 5492 5491 5487 5485 5483 5490 5491 5495 5494 5495 5499 5505 5515 5523 5531
5706 5703 5700 5696 5689 5683 5680 5673 5665 5657 5648 5639 5629 5617 5606 5593 5581 5568 5556 5547 5539 5528 5514 5506 5501 5493 5487 5482 5480 5477 5475 5472 5471 5474 5477 5479 5480 5481 5485 5490 5496 5507 5513
5694 5691 5687 5681 5675 5670 5664 5656 5649 5640 5631 5620 5609 5597 5586 5574 5561 5552 5544 5535 5525 5512 5502 5495 5488 5480 5472 5470 5468 5467 5465 5462 5460 5461 5464 5463 5466 5468 5472 5478 5484 5490 5495
5681 5678 5672 5665 5659 5654 5648 5641 5633 5623 5613 5603 5592 5580 5567 5555 5547 5539 5531 5522 5511 5501 5492 5484 5477 5471 5466 5462 5460 5458 5454 5453 5451 5451 5453 5452 5454 5455 5458 5465 5472 5477 5484
5667 5661 5656 5650 5645 5640 5633 5625 5615 5606 5596 5585 5575 5563 5550 5542 5535 5527 5520 5511 5500 5492 5486 5479 5471 5465 5460 5455 5451 5447 5445 5443 5442 5441 5442 5443 5442 5444 5447 5451 5459 5466 5472
5652 5647 5642 5637 5632 5625 5616 5608 5601 5592 5581 5570 5558 5547 5538 5530 5523 5517 5510 5502 5493 5486 5478 5472 5466 5459 5452 5448 5443 5438 5435 5431 5429 5429 5431 5432 5432 5434 5436 5442 5447 5452 5457
5638 5634 5629 5624 5617 5609 5601 5595 5586 5576 5565 5553 5544 5535 5527 5519 5513 5507 5500 5493 5486 5478 5470 5463 5457 5450 5443 5436 5431 5428 5424 5421 5418 5416 5418 5421 5422 5425 5428 5432 5437 5441 5444
5624 5620 5615 5608 5602 5595 5588 5580 5571 5559 5549 5541 5532 5524 5518 5511 5503 5496 5490 5484 5477 5469 5461 5453 5445 5437 5429 5421 5414 5412 5409 5408 5405 5404 5406 5409 5411 5414 5418 5423 5427 5429 5431
5609 5605 5600 5594 5589 5582 5574 5564 5554 5545 5536 5528 5522 5515 5508 5501 5494 5488 5480 5473 5467 5460 5453 5444 5434 5424 5412 5404 5396 5392 5392 5391 5391 5390 5393 5396 5400 5403 5407 5412 5417 5417 5418
5594 5590 5586 5580 5574 5566 5556 5547 5539 5531 5524 5517 5512 5505 5498 5491 5485 5479 5471 5463 5456 5449 5441 5434 5424 5412 5401 5392 5384 5380 5378 5378 5378 5379 5382 5386 5390 5394 5399 5403 5405 5405 5407
5580 5575 5570 5564 5557 5549 5540 5532 5525 5518 5513 5507 5501 5496 5490 5481 5475 5469 5461 5453 5445 5437 5430 5423 5413 5402 5392 5382 5374 5370 5368 5369 5369 5372 5376 5380 5384 5389 5393 5394 5395 5395 5396
5565 5560 5554 5547 5540 5533 5525 5518 5511 5506 5500 5495 5489 5484 5479 5473 5466 5459 5452 5445 5436 5428 5420 5413 5404 5394 5385 5376 5371 5368 5366 5366 5367 5368 5372 5376 5379 5382 5384 5386 5387 5389 5390
5549 5543 5536 5530 5524 5517 5511 5504 5498 5493 5488 5484 5478 5473 5468 5462 5456 5450 5443 5436 5429 5422 5413 5405 5397 5388 5380 5374 5369 5366 5364 5365 5366 5368 5370 5372 5374 5376 5377 5379 5382 5384 5384
5533 5527 5521 5515 5509 5502 5496 5491 5485 5479 5476 5472 5466 5461 5455 5451 5444 5438 5431 5425 5420 5414 5407 5400 5391 5384 5377 5373 5370 5368 5366 5366 5367 5368 5368 5369 5371 5372 5374 5377 5380 5382 5385
5516 5510 5505 5500 5494 5489 5484 5477 5473 5470 5464 5458 5452 5446 5441 5434 5427 5422 5416 5411 5408 5404 5399 5394 5386 5379 5374 5370 5369 5368 5367 5367 5367 5367 5368 5370 5371 5373 5374 5376 5378 5382 5386
5499 5494 5490 5484 5480 5476 5472 5470 5466 5458 5451 5447 5442 5434 5428 5422 5416 5411 5406 5400 5397 5396 5392 5387 5381 5375 5371 5368 5368 5367 5367 5366 5366 5367 5370 5371 5373 5375 5375 5377 5380 5384 5388
5483 5479 5475 5471 5468 5465 5462 5458 5454 5450 5448 5441 5432 5425 5419 5413 5407 5403 5398 5393 5390 5387 5385 5382 5377 5371 5368 5365 5366 5366 5367 5367 5367 5369 5372 5374 5376 5377 5379 5382 5385 5388 5391
5468 5465 5463 5460 5457 5454 5450 5446 5442 5437 5431 5427 5421 5416 5410 5405 5400 5395 5390 5386 5383 5382 5379 5376 5372 5368 5366 5364 5365 5366 5366 5366 5368 5371 5373 5376 5378 5380 5382 5385 5388 5391 5394
5455 5453 5451 5449 5445 5441 5436 5432 5429 5425 5420 5414 5409 5405 5401 5398 5393 5388 5383 5379 5376 5375 5373 5371 5368 5365 5364 5362 5363 5364 5366 5366 5367 5371 5374 5376 5379 5381 5383 5386 5389 5392 5394
5443 5442 5438 5435 5431 5427 5423 5419 5414 5411 5407 5403 5398 5395 5391 5388 5385 5381 5377 5373 5370 5368 5367 5365 5363 5361 5361 5360 5361 5362 5364 5365 5366 5370 5373 5376 5378 5381 5383 5386 5389 5391 5393
5431 5428 5423 5420 5415 5411 5408 5405 5400 5397 5394 5390 5387 5384 5381 5378 5375 5372 5369 5366 5364 5362 5361 5360 5358 5357 5356 5357 5358 5359 5361 5362 5365 5368 5371 5374 5377 5379 5382 5385 5387 5388 5390
5416 5412 5408 5403 5399 5396 5392 5389 5385 5382 5379 5377 5374 5372 5370 5367 5365 5362 5360 5359 5357 5355 5354 5354 5353 5352 5352 5352 5353 5355 5357 5359 5362 5364 5368 5371 5374 5377 5379 5382 5383 5386 5387
5399 5395 5392 5389 5384 5380 5376 5372 5368 5366 5364 5362 5360 5358 5356 5355 5353 5352 5350 5349 5348 5347 5347 5346 5346 5346 5346 5347 5348 5350 5353 5355 5357 5360 5364 5368 5371 5373 5376 5378 5380 5382 5384
5382 5379 5376 5372 5366 5362 5358 5353 5350 5348 5346 5344 5344 5342 5341 5340 5340 5339 5339 5338 5339 5338 5338 5338 5339 5339 5340 5340 5342 5344 5347 5350 5352 5356 5360 5363 5366 5369 5371 5373 5375 5377 5379
5366 5362 5357 5352 5347 5343 5339 5335 5332 5329 5327 5326 5326 5325 5324 5324 5325 5325 5326 5326 5327 5328 5329 5330 5331 5332 5333 5334 5336 5339 5342 5345 5347 5351 5355 5358 5361 5364 5366 5369 5371 5373 5374